Content
SEND FEEDBACK

Daily
Averages
Monthly
Summary
United States of America

HOT SPRINGS, ARKANSAS


Home > North America > United States > Arkansas
Elevation: 535 feet     Latitude: 34 29N     Longitude: 093 05W

WEATHER
 
SELECT A DAY
Number of Records: 190,386;   Date Range: 1/1/95 - 9/29/14
 
SHARE

PRINT THIS DATA

[ ← Previous Day ]
WEATHER ALMANAC - FEBRUARY 13, 2013
[ Next Day → ]
[ °C ]   °F
Weather ElementAverageHighLow
Temperature42.7 °F53.1 °F (4:53 pm)39 °F (1:53 am)
Dewpoint35.2 °F37 °F (12:53 am)28.9 °F (5:53 pm)
Humidity76.8 %93 % (1:53 am)43 % (5:53 pm)
Barometer29.99 in30.08 in (10:53 am)29.91 in (12:53 am)
Wind Speed3.6 mph9.2 mph (10:53 am)
Weather ElementAverage
Visibility10 mi
Wind DirectionSSE (156.3 °)

Weather ElementTotal
Precipitation---
Heating Degree Days19 (Base 65)
Averaged from 32 records on February 13, 2013
WEATHER CONDITIONS BREAKOUT
WIND DIRECTION BREAKOUT
WEATHER BY HOUR - FEBRUARY 13, 2013
[ °C ]   °F
Local TimeTemperatureDewpointHumidityBarometerVisibilityWind DirectionWind SpeedGust SpeedPrecipitationEventsConditions
12:53 AM39.9 °F37.0 °F89 %29.91 in10.0 miNNW (340°)6.9 mph0.00 inRainLight Rain
1:53 AM39.0 °F37.0 °F93 %29.92 in10.0 miNW (320°)5.8 mph0.00 inOvercast
2:53 AM39.0 °F36.0 °F89 %29.92 in10.0 miNNW (330°)4.6 mphOvercast
3:53 AM39.0 °F36.0 °F89 %29.93 in10.0 miNW (320°)3.5 mphOvercast
4:37 AM39.2 °F35.6 °F87 %29.94 in10.0 miNNW (330°)4.6 mphOvercast
4:53 AM39.0 °F36.0 °F89 %29.94 in10.0 miCalmOvercast
5:21 AM39.2 °F35.6 °F87 %29.96 in10.0 miNW (320°)3.5 mphMostly Cloudy
5:34 AM39.2 °F35.6 °F87 %29.96 in10.0 miCalmOvercast
5:43 AM39.2 °F35.6 °F87 %29.96 in10.0 miCalmOvercast
5:50 AM39.2 °F35.6 °F87 %29.96 in10.0 miCalmMostly Cloudy
5:53 AM39.0 °F35.1 °F86 %29.96 in10.0 miCalmMostly Cloudy
6:20 AM39.2 °F35.6 °F87 %29.98 in10.0 miNW (310°)4.6 mphMostly Cloudy
6:50 AM39.2 °F35.6 °F87 %29.99 in10.0 miVariable4.6 mphOvercast
6:53 AM39.0 °F36.0 °F89 %30.00 in10.0 miWNW (300°)4.6 mphOvercast
7:53 AM39.9 °F36.0 °F86 %30.02 in10.0 miCalmOvercast
8:53 AM41.0 °F36.0 °F82 %30.06 in10.0 miWNW (300°)3.5 mphOvercast
9:53 AM41.0 °F35.1 °F79 %30.07 in10.0 miNW (310°)5.8 mphOvercast
10:53 AM44.1 °F36.0 °F73 %30.08 in10.0 miNW (310°)9.2 mphOvercast
11:53 AM45.0 °F36.0 °F71 %30.06 in10.0 miVariable4.6 mphOvercast
12:53 PM46.9 °F36.0 °F66 %30.04 in10.0 miWSW (250°)8.1 mphMostly Cloudy
1:16 PM48.2 °F35.6 °F62 %30.03 in10.0 miVariable5.8 mphScattered Clouds
1:53 PM50.0 °F35.1 °F57 %30.01 in10.0 miVariable3.5 mphMostly Cloudy
2:53 PM52.0 °F34.0 °F50 %29.99 in10.0 miWSW (250°)9.2 mphMostly Cloudy
3:53 PM52.0 °F33.1 °F49 %29.98 in10.0 miWSW (240°)4.6 mphClear
4:53 PM53.1 °F33.1 °F47 %29.98 in10.0 miWest (260°)5.8 mphClear
5:53 PM51.1 °F28.9 °F43 %29.99 in10.0 miCalmClear
6:53 PM46.0 °F34.0 °F63 %30.00 in10.0 miSouth (190°)3.5 mphClear
7:53 PM44.1 °F36.0 °F73 %30.01 in10.0 miCalmClear
8:53 PM42.1 °F35.1 °F76 %30.02 in10.0 miCalmClear
9:53 PM43.0 °F35.1 °F74 %30.03 in10.0 miVariable4.6 mphClear
10:53 PM39.0 °F35.1 °F86 %30.04 in10.0 miNW (320°)3.5 mphClear
11:53 PM39.0 °F35.1 °F86 %30.04 in10.0 miCalmClear
Hourly data recorded from KHOT, located miles away from Hot Springs, Arkansas







STORIES FROM OUR PARTNERS